Change the Weather History Date:

Saturday, September 28, 2013

  Actual Average Record
Temperature  
Mean Temperature 76 °F -  
Max Temperature 87 °F 87 °F - ()
Min Temperature 64 °F 61 °F - ()
Cooling Degree Days 10    
Growing Degree Days 26 (Base 50)    
Moisture  
Dew Point 58 °F    
Average Humidity 54    
Maximum Humidity 78    
Minimum Humidity 24    
Precipitation  
Precipitation 0.00 in 0.00 in - ()
Sea Level Pressure  
Sea Level Pressure 29.94 in    
Wind  
Wind Speed 6 mph ()    
Max Wind Speed 14 mph    
Max Gust Speed -    
Visibility 6.0 miles    
Events      
T = Trace of Precipitation, MM = Missing Value Source: Averaged Metar Reports

Daily Weather History Graph

Daily Weather History Graph

Search for Another Location

Airport or City:

Trip Planner

Search our weather history database for the weather conditions in past years. The results will help you decide how hot, cold, wet, or windy it might be!

Date:

Astronomy

Sep. 28, 2013 Rise Set
Actual Time 5:47 AM EET 5:45 PM EET
Civil Twilight 5:23 AM EET 6:08 PM EET
Nautical Twilight 4:56 AM EET 6:35 PM EET
Astronomical Twilight 4:29 AM EET 7:02 PM EET
Moon No Moon Rise 1:24 PM EET (9/28)
Length of Visible Light 12h 44m
Length of Day
11h 58m
Last Quarter, 38% of the Moon is Illuminated
Sep 28
Last Quarter
Oct 5
New
Oct 12
First Quarter
Oct 19
Full
Oct 27
Last Quarter

Hourly Weather History & Observations

Time (EET) Temp. Heat Index Dew Point Humidity Pressure Visibility Wind Dir Wind Speed Gust Speed Precip Events Conditions
12:00 AM 71.6 °F - 59.0 °F 64% 29.95 in - WNW 2.3 mph - N/A   Clear
1:00 AM 71.6 °F - 59.0 °F 64% 29.92 in - NW 5.8 mph - N/A   Clear
2:00 AM 70 °F - 60 °F 62% 29.91 in 6 mi WNW 5.8 mph - -  
2:00 AM 69.8 °F - 59.0 °F 68% 29.92 in - WNW 5.8 mph - N/A   Clear
3:00 AM 68.0 °F - 59.0 °F 73% 29.92 in - WNW 6.9 mph - N/A   Clear
4:00 AM 66.2 °F - 59.0 °F 78% 29.92 in - NW 6.9 mph - N/A   Clear
5:00 AM 66.2 °F - 59.0 °F 78% 29.92 in - WNW 3.5 mph - N/A   Clear
6:00 AM 66.2 °F - 59.0 °F 78% 29.95 in - WNW 1.2 mph - N/A   Clear
7:00 AM 66.2 °F - 59.0 °F 78% 29.95 in - NW 1.2 mph - N/A   Clear
8:00 AM 71 °F - 59 °F 58% 29.95 in 6 mi NNW 4.6 mph - -  
8:00 AM 69.8 °F - 59.0 °F 68% 29.95 in - NNW 4.6 mph - N/A   Clear
9:00 AM 73.4 °F - 59.0 °F 61% 29.98 in - North 6.9 mph - N/A   Clear
10:00 AM 77.0 °F - 57.2 °F 50% 29.98 in - North 9.2 mph - N/A   Clear
11:00 AM 80.6 °F 80.8 °F 57.2 °F 45% 29.98 in - NNW 12.7 mph - N/A   Clear
12:00 PM 84.2 °F 83.5 °F 57.2 °F 40% 29.95 in - NNW 11.5 mph - N/A   Clear
1:00 PM 84.2 °F 82.8 °F 53.6 °F 35% 29.95 in - NNW 13.8 mph - N/A   Clear
2:00 PM 86 °F - 55 °F 24% 29.89 in 6 mi NNW 13.8 mph - -  
2:00 PM 86.0 °F 84.5 °F 55.4 °F 35% 29.92 in - NNW 13.8 mph - N/A   Clear
3:00 PM 87.8 °F 85.7 °F 53.6 °F 31% 29.92 in - NNW 11.5 mph - N/A   Clear
4:00 PM 86.0 °F 84.5 °F 55.4 °F 35% 29.92 in - North 11.5 mph - N/A   Clear
5:00 PM 84.2 °F 83.8 °F 59.0 °F 42% 29.92 in - NNW 9.2 mph - N/A   Clear
6:00 PM 82.4 °F 82.5 °F 59.0 °F 45% 29.92 in - NNW 8.1 mph - N/A   Clear
7:00 PM 80.6 °F 81.1 °F 59.0 °F 48% 29.92 in - NNW 5.8 mph - N/A   Clear
8:00 PM 78 °F - 60 °F 43% 29.92 in 6 mi NNW 4.6 mph - -  
8:00 PM 78.8 °F - 59.0 °F 51% 29.92 in - NNW 4.6 mph - N/A   Clear
9:00 PM 77.0 °F - 59.0 °F 54% 29.95 in - NNW 3.5 mph - N/A   Clear
10:00 PM 77.0 °F - 57.2 °F 50% 29.95 in - NW 1.2 mph - N/A   Clear
11:00 PM 73.4 °F - 60.8 °F 65% 29.95 in - NW 4.6 mph - N/A   Clear